Location: Maccacari
(45.1333°N, 11.1333°E)
Time: 22:49:42
(UTC+00:00)

Cosmos 2263 Rocket - Pass Details

Date: 18 September 2020
Orbit: 822 x 850 km, 71.0° (Epoch: 24 October)

Event Time Altitude Azimuth Distance (km) Brightness Sun altitude
Rises 17:46:59 0° 194° (SSW) 3,342 5.4 -5.6°
Reaches altitude 10° 17:49:25 10° 192° (SSW) 2,414 4.6 -6.0°
Maximum altitude 17:54:53 65° 111° (ESE) 907 2.2 -6.9°
Drops below altitude 10° 18:00:24 10° 31° (NNE) 2,442 4.4 -7.9°
Sets 18:02:52 0° 29° (NNE) 3,384 5.1 -8.3°
